ARIANE 5 R/B, 41383

Orbit data source: Space-Track

ARIANE 5 R/B, 41383 is space debris in HEO originally from a launch on Wed, 09 Mar 2016 UTC launched from the French Guiana (FRGUI). Debris objects in space refer to the collection of defunct objects orbiting the Earth. Examples of debris include non-operational satellites, rocket bodies, and fragments generated from explosions, collisions, or faulty payload assembly.

Loading next visibility...
Identifier
41383, 2016-014B
Orbit
HEO
Country
Flag of FRFR
Related business
Manufacturer
Airbus Safran
Mission
Spacecraft
Bus & Motor
ESC-A, Unknown motor
Mass
~5,000 kg wet, ~5,000 kg dry
Launch date (UTC)
2016-03-09 (10 years ago)
Launch vehicle
Unknown
Launch site
French Guiana (FRGUI)
Object type
Payload
Rocket body
Debris
Shape & HBR
Cyl + 1 Nozzle, 3.5 m
Radar Cross Section
41.627 m², Large (>1 m²)

Expand to show TLE details & history
Last TLE update: 10 hours ago

TLE from 10 hours ago
0 ARIANE 5 R/B
1 41383U 16014B   25258.48748743  .00010409  00000-0  83158-3 0  9990
2 41383   0.3083 125.6228 6580563 115.4868  38.7385  3.23927012 93653
Epoch: 2025-09-15T11:41Z
TLE epoch observation values (Epoch: 2025-09-15T11:41:58.913Z)
Latitude
-0.25132°
Longitude
-170.18703°
Altitude
9,678.663 km
Speed
5.384 km/s
True Right ascension
23h 59m 59s
True Declination
0° 15' 02"
Sunlit
Object was in full shadow at epoch
Visualization orbit readout
Latitude
Unknown
Longitude
Unknown
Altitude
Unknown
Speed
Unknown
Apparent Right ascension
Unknown
Apparent Declination
Unknown
Sunlit
N/A
Visualization observer readout
Local Sidereal Time
14:43:51
Azimuth
Unknown
Elevation
Unknown
Doppler factor
Unknown
Orbital elements
Apogee altitude
25,622.377 km
Perigee altitude
221.382 km
Semi-major axis
19,300.017 km
Eccentricity
0.65806
Inclination
0.3083°
RAAN
125.6228°
Arg. of periapsis
115.4868°
True anomaly
118.93531°
Mean anomaly
38.7385°
Eccentric anomaly
75.18974°
Mean motion
0.80948 °/min
Orbital period
444.73 mins
BSTAR
0.00083158
Loading maneuver chart data...
Computing Atmospheric mass density...
Loading historical data...
Loading historical data...
Loading historical data...
Loading historical data...
Loading historical data...
Loading historical data...
Loading historical data...
Other satellites on launch #14 in the year 2016 (2016-03-09 UTC)

Documentation

Showing up to 5 results
|